Location: Karaa?a�
(36.7158°N, 30.4165°E)
Time: 12:41:45
(UTC+00:00)

Hubble Space Telescope - Visible Passes

Search period start: 15 July 2020 00:00
Search period end: 25 July 2020 00:00
Orbit: 536 x 540 km, 28.5° (Epoch: 14 July)

Date Brightness Start Highest point End Pass type
(mag) Time Alt. Az. Time Alt. Az. Time Alt. Az.
15 Jul 2.6 19:04:00 10° WSW 19:06:21 17° SSW 19:06:21 17° SSW visible
16 Jul 2.7 18:53:32 10° SW 18:55:59 15° SSW 18:56:04 15° SSW visible
17 Jul 2.9 18:43:14 10° SW 18:45:09 13° SSW 18:45:48 13° S visible
18 Jul 3.1 18:33:20 10° SW 18:34:20 11° SSW 18:35:21 10° S visible
